Homer, AK

10:24 PM AKDT on June 23, 2017 (GMT -0800)
Homer

Weather History for PAHO - July, 2013

Change the Weather History Date:

Friday, July 5, 2013

  Actual Average Record
Temperature  
Mean Temperature 52 °F -  
Max Temperature 57 °F 59 °F 73 °F (2014)
Min Temperature 50 °F 45 °F 35 °F (1955)
Degree Days  
Heating Degree Days 12    
Growing Degree Days 2 (Base 50)    
Moisture  
Dew Point 47 °F    
Average Humidity 79    
Maximum Humidity 86    
Minimum Humidity 69    
Precipitation  
Precipitation 0.13 in - - ()
Sea Level Pressure  
Sea Level Pressure 30.06 in    
Wind  
Wind Speed 2 mph (SW)    
Max Wind Speed 6 mph    
Max Gust Speed -    
Visibility 10 miles    
Events Rain    
Averages and records for this station are not official NWS values.
T = Trace of Precipitation, MM = Missing Value Source: NWS Daily Summary

Daily Weather History Graph

Daily Weather History Graph

Search for Another Location

Airport or City:

Trip Planner

Search our weather history database for the weather conditions in past years. The results will help you decide how hot, cold, wet, or windy it might be!

Date:

Astronomy

Jul. 05, 2013 Rise Set
Actual Time 4:57 AM AKDT 11:23 PM AKDT
Civil Twilight 3:30 AM AKDT 12:48 AM AKDT
Nautical Twilight Sun does not set Sun does not set
Astronomical Twilight Sun does not set Sun does not set
Moon 3:25 AM AKDT (7/5) 9:06 PM AKDT (7/5)
Length of Visible Light 21h 18m
Length of Day
18h 25m
Waning Crescent, 5% of the Moon is Illuminated
Jul 5
Waning Crescent
Jul 7
New
Jul 15
First Quarter
Jul 22
Full
Jul 29
Last Quarter

Hourly Weather History & Observations

Time (AKDT) Temp. Dew Point Humidity Pressure Visibility Wind Dir Wind Speed Gust Speed Precip Events Conditions
12:53 AM 53.1 °F 43.0 °F 69% 30.08 in 10.0 mi WSW 3.5 mph - N/A   Overcast
1:53 AM 53.1 °F 44.1 °F 71% 30.08 in 10.0 mi Calm Calm - N/A   Overcast
2:53 AM 52.0 °F 45.0 °F 77% 30.09 in 10.0 mi North - - N/A   Overcast
3:53 AM 50.0 °F 44.1 °F 80% 30.08 in 10.0 mi ENE 3.5 mph - N/A   Overcast
4:53 AM 51.1 °F 44.1 °F 77% 30.08 in 10.0 mi Calm Calm - N/A   Overcast
5:53 AM 51.1 °F 46.0 °F 83% 30.08 in 10.0 mi Calm Calm - N/A   Overcast
6:53 AM 50.0 °F 46.0 °F 86% 30.08 in 10.0 mi Calm Calm - N/A   Overcast
7:53 AM 52.0 °F 46.9 °F 83% 30.07 in 10.0 mi Calm Calm - N/A   Overcast
8:53 AM 53.1 °F 46.9 °F 80% 30.07 in 10.0 mi Calm Calm - N/A   Overcast
9:53 AM 54.0 °F 46.9 °F 77% 30.07 in 10.0 mi Calm Calm - N/A   Overcast
10:53 AM 54.0 °F 46.9 °F 77% 30.07 in 10.0 mi Calm Calm - N/A   Overcast
11:53 AM 55.0 °F 48.0 °F 77% 30.06 in 10.0 mi SW 4.6 mph - N/A   Overcast
12:53 PM 54.0 °F 48.0 °F 80% 30.06 in 10.0 mi SW 5.8 mph - N/A   Overcast
1:53 PM 53.1 °F 46.0 °F 77% 30.07 in 7.0 mi West 5.8 mph - 0.00 in Rain Light Rain
2:53 PM 54.0 °F 48.0 °F 80% 30.06 in 6.0 mi Calm Calm - 0.06 in Rain Light Rain
3:53 PM 54.0 °F 48.0 °F 80% 30.05 in 10.0 mi ENE 4.6 mph - 0.04 in Rain Light Rain
4:53 PM 55.0 °F 48.0 °F 77% 30.04 in 10.0 mi ENE 3.5 mph - 0.01 in Rain Light Rain
5:53 PM 55.0 °F 46.9 °F 74% 30.04 in 10.0 mi SSW 4.6 mph - 0.01 in Rain Light Rain
6:53 PM 53.1 °F 48.0 °F 83% 30.03 in 10.0 mi Calm Calm - 0.01 in   Overcast
7:53 PM 54.0 °F 46.9 °F 77% 30.03 in 10.0 mi Calm Calm - N/A   Overcast
8:53 PM 54.0 °F 48.0 °F 80% 30.02 in 10.0 mi Calm Calm - 0.00 in Rain Light Rain
9:53 PM 54.0 °F 48.0 °F 80% 30.02 in 10.0 mi Calm Calm - N/A   Overcast
10:53 PM 53.1 °F 46.9 °F 80% 30.02 in 10.0 mi Calm Calm - N/A   Overcast
11:53 PM 52.0 °F 46.0 °F 80% 30.03 in 10.0 mi West 5.8 mph - N/A   Overcast